owner,sensor,date,latitude,longitude,air_temperature,qcFlag 
WAVCIS,ioos:station:WAVCIS:CSI03:1,2010-08-01T00:00:00Z,29.4412,-92.0613,30.7,11111222 
WAVCIS,ioos:station:WAVCIS:CSI03:1,2010-08-01T01:00:00Z,29.4412,-92.0613,30.57,11111222 
WAVCIS,ioos:station:WAVCIS:CSI03:1,2010-08-01T02:00:00Z,29.4412,-92.0613,30.55,11111222 
WAVCIS,ioos:station:WAVCIS:CSI03:1,2010-08-01T03:00:00Z,29.4412,-92.0613,30.49,11111222 
WAVCIS,ioos:station:WAVCIS:CSI03:1,2010-08-01T04:00:00Z,29.4412,-92.0613,30.51,11111222 
WAVCIS,ioos:station:WAVCIS:CSI03:1,2010-08-01T05:00:00Z,29.4412,-92.0613,30.43,11111222 
WAVCIS,ioos:station:WAVCIS:CSI03:1,2010-08-01T06:00:00Z,29.4412,-92.0613,30.37,11111222 
WAVCIS,ioos:station:WAVCIS:CSI03:1,2010-08-01T07:00:00Z,29.4412,-92.0613,30.35,11111222 
WAVCIS,ioos:station:WAVCIS:CSI03:1,2010-08-01T08:00:00Z,29.4412,-92.0613,30.54,11111222 
WAVCIS,ioos:station:WAVCIS:CSI03:1,2010-08-01T09:00:00Z,29.4412,-92.0613,30.21,11111222 
WAVCIS,ioos:station:WAVCIS:CSI03:1,2010-08-01T10:00:00Z,29.4412,-92.0613,30.21,11111222 
WAVCIS,ioos:station:WAVCIS:CSI03:1,2010-08-01T11:00:00Z,29.4412,-92.0613,29.82,11111222 
WAVCIS,ioos:station:WAVCIS:CSI03:1,2010-08-01T12:00:00Z,29.4412,-92.0613,29.58,11111222 
WAVCIS,ioos:station:WAVCIS:CSI03:1,2010-08-01T13:00:00Z,29.4412,-92.0613,29.58,11111222 
WAVCIS,ioos:station:WAVCIS:CSI03:1,2010-08-01T14:00:00Z,29.4412,-92.0613,29.84,11111222 
WAVCIS,ioos:station:WAVCIS:CSI03:1,2010-08-01T15:00:00Z,29.4412,-92.0613,30.28,11111222 
WAVCIS,ioos:station:WAVCIS:CSI03:1,2010-08-01T16:00:00Z,29.4412,-92.0613,30.99,11111222 
WAVCIS,ioos:station:WAVCIS:CSI03:1,2010-08-01T17:00:00Z,29.4412,-92.0613,31.7,11111222 
WAVCIS,ioos:station:WAVCIS:CSI03:1,2010-08-01T18:00:00Z,29.4412,-92.0613,33.0,11111222 
WAVCIS,ioos:station:WAVCIS:CSI03:1,2010-08-01T19:00:00Z,29.4412,-92.0613,34.23,11111222 
WAVCIS,ioos:station:WAVCIS:CSI03:1,2010-08-01T20:00:00Z,29.4412,-92.0613,34.01,11111222 
WAVCIS,ioos:station:WAVCIS:CSI03:1,2010-08-01T21:00:00Z,29.4412,-92.0613,32.61,11111222 
WAVCIS,ioos:station:WAVCIS:CSI03:1,2010-08-01T22:00:00Z,29.4412,-92.0613,33.0,11111222 
WAVCIS,ioos:station:WAVCIS:CSI03:1,2010-08-01T23:00:00Z,29.4412,-92.0613,32.27,11111222 
WAVCIS,ioos:station:WAVCIS:CSI03:1,2010-08-02T00:00:00Z,29.4412,-92.0613,31.88,11111222 
WAVCIS,ioos:station:WAVCIS:CSI03:1,2010-08-02T01:00:00Z,29.4412,-92.0613,31.55,11111222 
WAVCIS,ioos:station:WAVCIS:CSI03:1,2010-08-02T02:00:00Z,29.4412,-92.0613,31.47,11111222 
WAVCIS,ioos:station:WAVCIS:CSI03:1,2010-08-02T03:00:00Z,29.4412,-92.0613,31.43,11111222 
WAVCIS,ioos:station:WAVCIS:CSI03:1,2010-08-02T04:00:00Z,29.4412,-92.0613,31.24,11111222 
WAVCIS,ioos:station:WAVCIS:CSI03:1,2010-08-02T05:00:00Z,29.4412,-92.0613,31.07,11111222 
WAVCIS,ioos:station:WAVCIS:CSI03:1,2010-08-02T06:00:00Z,29.4412,-92.0613,31.06,11111222 
WAVCIS,ioos:station:WAVCIS:CSI03:1,2010-08-02T07:00:00Z,29.4412,-92.0613,30.98,11111222 
WAVCIS,ioos:station:WAVCIS:CSI03:1,2010-08-02T08:00:00Z,29.4412,-92.0613,30.8,11111222 
WAVCIS,ioos:station:WAVCIS:CSI03:1,2010-08-02T09:00:00Z,29.4412,-92.0613,30.64,11111222 
WAVCIS,ioos:station:WAVCIS:CSI03:1,2010-08-02T10:00:00Z,29.4412,-92.0613,30.98,11111222 
WAVCIS,ioos:station:WAVCIS:CSI03:1,2010-08-02T11:00:00Z,29.4412,-92.0613,30.76,11111222 
WAVCIS,ioos:station:WAVCIS:CSI03:1,2010-08-02T12:00:00Z,29.4412,-92.0613,30.46,11111222 
WAVCIS,ioos:station:WAVCIS:CSI03:1,2010-08-02T13:00:00Z,29.4412,-92.0613,30.58,11111222 
WAVCIS,ioos:station:WAVCIS:CSI03:1,2010-08-02T14:00:00Z,29.4412,-92.0613,30.64,11111222 
WAVCIS,ioos:station:WAVCIS:CSI03:1,2010-08-02T15:00:00Z,29.4412,-92.0613,30.52,11111222 
WAVCIS,ioos:station:WAVCIS:CSI03:1,2010-08-02T16:00:00Z,29.4412,-92.0613,31.15,11111222 
WAVCIS,ioos:station:WAVCIS:CSI03:1,2010-08-02T17:00:00Z,29.4412,-92.0613,32.86,11111222 
WAVCIS,ioos:station:WAVCIS:CSI03:1,2010-08-02T18:00:00Z,29.4412,-92.0613,34.64,11111222 
WAVCIS,ioos:station:WAVCIS:CSI03:1,2010-08-02T19:00:00Z,29.4412,-92.0613,33.24,11111222 
WAVCIS,ioos:station:WAVCIS:CSI03:1,2010-08-02T20:00:00Z,29.4412,-92.0613,33.79,11111222 
WAVCIS,ioos:station:WAVCIS:CSI03:1,2010-08-02T21:00:00Z,29.4412,-92.0613,34.2,11111222 
WAVCIS,ioos:station:WAVCIS:CSI03:1,2010-08-02T22:00:00Z,29.4412,-92.0613,34.3,11111222 
WAVCIS,ioos:station:WAVCIS:CSI03:1,2010-08-02T23:00:00Z,29.4412,-92.0613,34.71,11111222 
WAVCIS,ioos:station:WAVCIS:CSI03:1,2010-08-03T00:00:00Z,29.4412,-92.0613,34.59,11111222 
WAVCIS,ioos:station:WAVCIS:CSI03:1,2010-08-03T01:00:00Z,29.4412,-92.0613,34.15,11111222 
WAVCIS,ioos:station:WAVCIS:CSI03:1,2010-08-03T02:00:00Z,29.4412,-92.0613,33.7,11111222 
WAVCIS,ioos:station:WAVCIS:CSI03:1,2010-08-03T03:00:00Z,29.4412,-92.0613,32.61,11111222 
WAVCIS,ioos:station:WAVCIS:CSI03:1,2010-08-03T04:00:00Z,29.4412,-92.0613,33.06,11111222 
WAVCIS,ioos:station:WAVCIS:CSI03:1,2010-08-03T05:00:00Z,29.4412,-92.0613,32.17,11111222 
WAVCIS,ioos:station:WAVCIS:CSI03:1,2010-08-03T06:00:00Z,29.4412,-92.0613,32.08,11111222 
WAVCIS,ioos:station:WAVCIS:CSI03:1,2010-08-03T07:00:00Z,29.4412,-92.0613,32.78,11111222 
WAVCIS,ioos:station:WAVCIS:CSI03:1,2010-08-03T08:00:00Z,29.4412,-92.0613,31.77,11111222 
WAVCIS,ioos:station:WAVCIS:CSI03:1,2010-08-03T09:00:00Z,29.4412,-92.0613,30.94,11111222 
WAVCIS,ioos:station:WAVCIS:CSI03:1,2010-08-03T10:00:00Z,29.4412,-92.0613,30.94,11111222 
WAVCIS,ioos:station:WAVCIS:CSI03:1,2010-08-03T11:00:00Z,29.4412,-92.0613,30.7,11111222 
WAVCIS,ioos:station:WAVCIS:CSI03:1,2010-08-03T12:00:00Z,29.4412,-92.0613,30.45,11111222 
WAVCIS,ioos:station:WAVCIS:CSI03:1,2010-08-03T13:00:00Z,29.4412,-92.0613,30.41,11111222 
WAVCIS,ioos:station:WAVCIS:CSI03:1,2010-08-03T14:00:00Z,29.4412,-92.0613,29.99,11111222 
WAVCIS,ioos:station:WAVCIS:CSI03:1,2010-08-03T15:00:00Z,29.4412,-92.0613,30.09,11111222 
WAVCIS,ioos:station:WAVCIS:CSI03:1,2010-08-03T16:00:00Z,29.4412,-92.0613,30.43,11111222 
WAVCIS,ioos:station:WAVCIS:CSI03:1,2010-08-03T17:00:00Z,29.4412,-92.0613,30.8,11111222 
WAVCIS,ioos:station:WAVCIS:CSI03:1,2010-08-03T18:00:00Z,29.4412,-92.0613,30.74,11111222 
WAVCIS,ioos:station:WAVCIS:CSI03:1,2010-08-03T19:00:00Z,29.4412,-92.0613,30.59,11111222 
WAVCIS,ioos:station:WAVCIS:CSI03:1,2010-08-03T20:00:00Z,29.4412,-92.0613,31.45,11111222 
WAVCIS,ioos:station:WAVCIS:CSI03:1,2010-08-03T21:00:00Z,29.4412,-92.0613,31.08,11111222 
WAVCIS,ioos:station:WAVCIS:CSI03:1,2010-08-03T22:00:00Z,29.4412,-92.0613,31.15,11111222 
WAVCIS,ioos:station:WAVCIS:CSI03:1,2010-08-03T23:00:00Z,29.4412,-92.0613,31.63,11111222 
WAVCIS,ioos:station:WAVCIS:CSI03:1,2010-08-04T00:00:00Z,29.4412,-92.0613,31.1,11111222 
WAVCIS,ioos:station:WAVCIS:CSI03:1,2010-08-04T01:00:00Z,29.4412,-92.0613,31.19,11111222 
WAVCIS,ioos:station:WAVCIS:CSI03:1,2010-08-04T02:00:00Z,29.4412,-92.0613,31.25,11111222 
WAVCIS,ioos:station:WAVCIS:CSI03:1,2010-08-04T03:00:00Z,29.4412,-92.0613,31.33,11111222 
WAVCIS,ioos:station:WAVCIS:CSI03:1,2010-08-04T04:00:00Z,29.4412,-92.0613,31.37,11111222 
WAVCIS,ioos:station:WAVCIS:CSI03:1,2010-08-04T05:00:00Z,29.4412,-92.0613,31.67,11111222 
WAVCIS,ioos:station:WAVCIS:CSI03:1,2010-08-04T06:00:00Z,29.4412,-92.0613,32.23,11111222 
WAVCIS,ioos:station:WAVCIS:CSI03:1,2010-08-04T07:00:00Z,29.4412,-92.0613,30.63,11111222 
WAVCIS,ioos:station:WAVCIS:CSI03:1,2010-08-04T08:00:00Z,29.4412,-92.0613,30.27,11111222 
WAVCIS,ioos:station:WAVCIS:CSI03:1,2010-08-04T09:00:00Z,29.4412,-92.0613,30.21,11111222 
WAVCIS,ioos:station:WAVCIS:CSI03:1,2010-08-04T10:00:00Z,29.4412,-92.0613,30.16,11111222 
WAVCIS,ioos:station:WAVCIS:CSI03:1,2010-08-04T11:00:00Z,29.4412,-92.0613,30.18,11111222 
WAVCIS,ioos:station:WAVCIS:CSI03:1,2010-08-04T12:00:00Z,29.4412,-92.0613,30.46,11111222 
WAVCIS,ioos:station:WAVCIS:CSI03:1,2010-08-04T13:00:00Z,29.4412,-92.0613,30.47,11111222 
WAVCIS,ioos:station:WAVCIS:CSI03:1,2010-08-04T14:00:00Z,29.4412,-92.0613,31.04,11111222 
WAVCIS,ioos:station:WAVCIS:CSI03:1,2010-08-04T15:00:00Z,29.4412,-92.0613,30.85,11111222 
WAVCIS,ioos:station:WAVCIS:CSI03:1,2010-08-04T16:00:00Z,29.4412,-92.0613,31.74,11111222 
WAVCIS,ioos:station:WAVCIS:CSI03:1,2010-08-04T17:00:00Z,29.4412,-92.0613,31.91,11111222 
WAVCIS,ioos:station:WAVCIS:CSI03:1,2010-08-04T18:00:00Z,29.4412,-92.0613,32.47,11111222 
WAVCIS,ioos:station:WAVCIS:CSI03:1,2010-08-04T19:00:00Z,29.4412,-92.0613,32.35,11111222 
WAVCIS,ioos:station:WAVCIS:CSI03:1,2010-08-04T20:00:00Z,29.4412,-92.0613,32.91,11111222 
WAVCIS,ioos:station:WAVCIS:CSI03:1,2010-08-04T21:00:00Z,29.4412,-92.0613,33.58,11111222 
WAVCIS,ioos:station:WAVCIS:CSI03:1,2010-08-04T22:00:00Z,29.4412,-92.0613,33.42,11111222 
WAVCIS,ioos:station:WAVCIS:CSI03:1,2010-08-04T23:00:00Z,29.4412,-92.0613,32.63,11111222 
WAVCIS,ioos:station:WAVCIS:CSI03:1,2010-08-05T00:00:00Z,29.4412,-92.0613,31.72,11111222 
WAVCIS,ioos:station:WAVCIS:CSI03:1,2010-08-05T01:00:00Z,29.4412,-92.0613,31.38,11111222 
WAVCIS,ioos:station:WAVCIS:CSI03:1,2010-08-05T02:00:00Z,29.4412,-92.0613,32.34,11111222 
WAVCIS,ioos:station:WAVCIS:CSI03:1,2010-08-05T03:00:00Z,29.4412,-92.0613,32.26,11111222 
WAVCIS,ioos:station:WAVCIS:CSI03:1,2010-08-05T04:00:00Z,29.4412,-92.0613,32.76,11111222 
WAVCIS,ioos:station:WAVCIS:CSI03:1,2010-08-05T05:00:00Z,29.4412,-92.0613,32.64,11111222 
WAVCIS,ioos:station:WAVCIS:CSI03:1,2010-08-05T06:00:00Z,29.4412,-92.0613,32.12,11111222 
WAVCIS,ioos:station:WAVCIS:CSI03:1,2010-08-05T07:00:00Z,29.4412,-92.0613,30.02,11111222 
WAVCIS,ioos:station:WAVCIS:CSI03:1,2010-08-05T08:00:00Z,29.4412,-92.0613,29.14,11111222 
WAVCIS,ioos:station:WAVCIS:CSI03:1,2010-08-05T09:00:00Z,29.4412,-92.0613,29.65,11111222 
WAVCIS,ioos:station:WAVCIS:CSI03:1,2010-08-05T10:00:00Z,29.4412,-92.0613,30.26,11111222 
WAVCIS,ioos:station:WAVCIS:CSI03:1,2010-08-05T11:00:00Z,29.4412,-92.0613,30.16,11111222 
WAVCIS,ioos:station:WAVCIS:CSI03:1,2010-08-05T12:00:00Z,29.4412,-92.0613,30.19,11111222 
WAVCIS,ioos:station:WAVCIS:CSI03:1,2010-08-05T13:00:00Z,29.4412,-92.0613,30.39,11111222 
WAVCIS,ioos:station:WAVCIS:CSI03:1,2010-08-05T14:00:00Z,29.4412,-92.0613,30.13,11111222 
WAVCIS,ioos:station:WAVCIS:CSI03:1,2010-08-05T15:00:00Z,29.4412,-92.0613,29.48,11111222 
WAVCIS,ioos:station:WAVCIS:CSI03:1,2010-08-05T16:00:00Z,29.4412,-92.0613,29.76,11111222 
WAVCIS,ioos:station:WAVCIS:CSI03:1,2010-08-05T17:00:00Z,29.4412,-92.0613,28.67,11111222 
WAVCIS,ioos:station:WAVCIS:CSI03:1,2010-08-05T18:00:00Z,29.4412,-92.0613,26.87,11111222 
WAVCIS,ioos:station:WAVCIS:CSI03:1,2010-08-05T19:00:00Z,29.4412,-92.0613,26.38,11111222 
WAVCIS,ioos:station:WAVCIS:CSI03:1,2010-08-05T20:00:00Z,29.4412,-92.0613,27.12,11111222 
WAVCIS,ioos:station:WAVCIS:CSI03:1,2010-08-05T21:00:00Z,29.4412,-92.0613,27.95,11111222 
WAVCIS,ioos:station:WAVCIS:CSI03:1,2010-08-05T22:00:00Z,29.4412,-92.0613,28.52,11111222 
WAVCIS,ioos:station:WAVCIS:CSI03:1,2010-08-05T23:00:00Z,29.4412,-92.0613,28.15,11111222 
WAVCIS,ioos:station:WAVCIS:CSI03:1,2010-08-06T00:00:00Z,29.4412,-92.0613,28.12,11111222 
WAVCIS,ioos:station:WAVCIS:CSI03:1,2010-08-06T01:00:00Z,29.4412,-92.0613,28.43,11111222 
WAVCIS,ioos:station:WAVCIS:CSI03:1,2010-08-06T02:00:00Z,29.4412,-92.0613,29.14,11111222 
WAVCIS,ioos:station:WAVCIS:CSI03:1,2010-08-06T03:00:00Z,29.4412,-92.0613,29.39,11111222 
WAVCIS,ioos:station:WAVCIS:CSI03:1,2010-08-06T04:00:00Z,29.4412,-92.0613,29.58,11111222 
WAVCIS,ioos:station:WAVCIS:CSI03:1,2010-08-06T05:00:00Z,29.4412,-92.0613,29.32,11111222 
WAVCIS,ioos:station:WAVCIS:CSI03:1,2010-08-06T06:00:00Z,29.4412,-92.0613,29.47,11111222 
WAVCIS,ioos:station:WAVCIS:CSI03:1,2010-08-06T07:00:00Z,29.4412,-92.0613,29.5,11111222 
WAVCIS,ioos:station:WAVCIS:CSI03:1,2010-08-06T08:00:00Z,29.4412,-92.0613,29.66,11111222 
WAVCIS,ioos:station:WAVCIS:CSI03:1,2010-08-06T09:00:00Z,29.4412,-92.0613,29.91,11111222 
WAVCIS,ioos:station:WAVCIS:CSI03:1,2010-08-06T10:00:00Z,29.4412,-92.0613,30.09,11111222 
WAVCIS,ioos:station:WAVCIS:CSI03:1,2010-08-06T11:00:00Z,29.4412,-92.0613,29.9,11111222 
WAVCIS,ioos:station:WAVCIS:CSI03:1,2010-08-06T12:00:00Z,29.4412,-92.0613,31.03,11111222 
WAVCIS,ioos:station:WAVCIS:CSI03:1,2010-08-06T13:00:00Z,29.4412,-92.0613,30.53,11111222 
WAVCIS,ioos:station:WAVCIS:CSI03:1,2010-08-06T14:00:00Z,29.4412,-92.0613,29.88,11111222 
WAVCIS,ioos:station:WAVCIS:CSI03:1,2010-08-06T15:00:00Z,29.4412,-92.0613,30.19,11111222 
WAVCIS,ioos:station:WAVCIS:CSI03:1,2010-08-06T16:00:00Z,29.4412,-92.0613,30.58,11111222 
WAVCIS,ioos:station:WAVCIS:CSI03:1,2010-08-06T17:00:00Z,29.4412,-92.0613,31.82,11111222 
WAVCIS,ioos:station:WAVCIS:CSI03:1,2010-08-06T18:00:00Z,29.4412,-92.0613,31.46,11111222 
WAVCIS,ioos:station:WAVCIS:CSI03:1,2010-08-06T19:00:00Z,29.4412,-92.0613,30.7,11111222 
WAVCIS,ioos:station:WAVCIS:CSI03:1,2010-08-06T20:00:00Z,29.4412,-92.0613,30.49,11111222 
WAVCIS,ioos:station:WAVCIS:CSI03:1,2010-08-06T21:00:00Z,29.4412,-92.0613,31.86,11111222 
WAVCIS,ioos:station:WAVCIS:CSI03:1,2010-08-06T22:00:00Z,29.4412,-92.0613,30.62,11111222 
WAVCIS,ioos:station:WAVCIS:CSI03:1,2010-08-06T23:00:00Z,29.4412,-92.0613,30.97,11111222 
WAVCIS,ioos:station:WAVCIS:CSI03:1,2010-08-07T00:00:00Z,29.4412,-92.0613,31.23,11111222 
WAVCIS,ioos:station:WAVCIS:CSI03:1,2010-08-07T01:00:00Z,29.4412,-92.0613,30.44,11111222 
WAVCIS,ioos:station:WAVCIS:CSI03:1,2010-08-07T02:00:00Z,29.4412,-92.0613,30.62,11111222 
WAVCIS,ioos:station:WAVCIS:CSI03:1,2010-08-07T03:00:00Z,29.4412,-92.0613,30.7,11111222 
WAVCIS,ioos:station:WAVCIS:CSI03:1,2010-08-07T04:00:00Z,29.4412,-92.0613,30.29,11111222 
WAVCIS,ioos:station:WAVCIS:CSI03:1,2010-08-07T05:00:00Z,29.4412,-92.0613,31.71,11111222 
WAVCIS,ioos:station:WAVCIS:CSI03:1,2010-08-07T06:00:00Z,29.4412,-92.0613,31.85,11111222 
WAVCIS,ioos:station:WAVCIS:CSI03:1,2010-08-07T07:00:00Z,29.4412,-92.0613,30.43,11111222 
WAVCIS,ioos:station:WAVCIS:CSI03:1,2010-08-07T08:00:00Z,29.4412,-92.0613,30.68,11111222 
WAVCIS,ioos:station:WAVCIS:CSI03:1,2010-08-07T09:00:00Z,29.4412,-92.0613,31.21,11111222 
WAVCIS,ioos:station:WAVCIS:CSI03:1,2010-08-07T10:00:00Z,29.4412,-92.0613,30.63,11111222 
WAVCIS,ioos:station:WAVCIS:CSI03:1,2010-08-07T11:00:00Z,29.4412,-92.0613,30.33,11111222 
WAVCIS,ioos:station:WAVCIS:CSI03:1,2010-08-07T12:00:00Z,29.4412,-92.0613,30.01,11111222 
WAVCIS,ioos:station:WAVCIS:CSI03:1,2010-08-07T13:00:00Z,29.4412,-92.0613,30.21,11111222 
WAVCIS,ioos:station:WAVCIS:CSI03:1,2010-08-07T14:00:00Z,29.4412,-92.0613,30.39,11111222 
WAVCIS,ioos:station:WAVCIS:CSI03:1,2010-08-07T15:00:00Z,29.4412,-92.0613,29.61,11111222 
WAVCIS,ioos:station:WAVCIS:CSI03:1,2010-08-07T16:00:00Z,29.4412,-92.0613,30.44,11111222 
WAVCIS,ioos:station:WAVCIS:CSI03:1,2010-08-07T17:00:00Z,29.4412,-92.0613,31.23,11111222 
WAVCIS,ioos:station:WAVCIS:CSI03:1,2010-08-07T18:00:00Z,29.4412,-92.0613,32.8,11111222 
WAVCIS,ioos:station:WAVCIS:CSI03:1,2010-08-07T19:00:00Z,29.4412,-92.0613,32.55,11111222 
WAVCIS,ioos:station:WAVCIS:CSI03:1,2010-08-07T20:00:00Z,29.4412,-92.0613,32.93,11111222 
WAVCIS,ioos:station:WAVCIS:CSI03:1,2010-08-07T21:00:00Z,29.4412,-92.0613,32.73,11111222 
WAVCIS,ioos:station:WAVCIS:CSI03:1,2010-08-07T22:00:00Z,29.4412,-92.0613,32.76,11111222 
WAVCIS,ioos:station:WAVCIS:CSI03:1,2010-08-07T23:00:00Z,29.4412,-92.0613,32.53,11111222 
WAVCIS,ioos:station:WAVCIS:CSI03:1,2010-08-08T00:00:00Z,29.4412,-92.0613,32.32,11111222 
WAVCIS,ioos:station:WAVCIS:CSI03:1,2010-08-08T01:00:00Z,29.4412,-92.0613,32.64,11111222 
WAVCIS,ioos:station:WAVCIS:CSI03:1,2010-08-08T02:00:00Z,29.4412,-92.0613,32.88,11111222 
WAVCIS,ioos:station:WAVCIS:CSI03:1,2010-08-08T03:00:00Z,29.4412,-92.0613,32.79,11111222 
WAVCIS,ioos:station:WAVCIS:CSI03:1,2010-08-08T04:00:00Z,29.4412,-92.0613,33.06,11111222 
WAVCIS,ioos:station:WAVCIS:CSI03:1,2010-08-08T05:00:00Z,29.4412,-92.0613,32.37,11111222 
WAVCIS,ioos:station:WAVCIS:CSI03:1,2010-08-08T06:00:00Z,29.4412,-92.0613,32.63,11111222 
WAVCIS,ioos:station:WAVCIS:CSI03:1,2010-08-08T07:00:00Z,29.4412,-92.0613,32.79,11111222 
WAVCIS,ioos:station:WAVCIS:CSI03:1,2010-08-08T08:00:00Z,29.4412,-92.0613,31.92,11111222 
WAVCIS,ioos:station:WAVCIS:CSI03:1,2010-08-08T09:00:00Z,29.4412,-92.0613,30.59,11111222 
WAVCIS,ioos:station:WAVCIS:CSI03:1,2010-08-08T10:00:00Z,29.4412,-92.0613,31.58,11111222 
WAVCIS,ioos:station:WAVCIS:CSI03:1,2010-08-08T11:00:00Z,29.4412,-92.0613,30.3,11111222 
WAVCIS,ioos:station:WAVCIS:CSI03:1,2010-08-08T12:00:00Z,29.4412,-92.0613,30.2,11111222 
WAVCIS,ioos:station:WAVCIS:CSI03:1,2010-08-08T13:00:00Z,29.4412,-92.0613,30.57,11111222 
WAVCIS,ioos:station:WAVCIS:CSI03:1,2010-08-08T14:00:00Z,29.4412,-92.0613,31.51,11111222 
WAVCIS,ioos:station:WAVCIS:CSI03:1,2010-08-08T15:00:00Z,29.4412,-92.0613,31.16,11111222 
WAVCIS,ioos:station:WAVCIS:CSI03:1,2010-08-08T16:00:00Z,29.4412,-92.0613,31.85,11111222 
WAVCIS,ioos:station:WAVCIS:CSI03:1,2010-08-08T17:00:00Z,29.4412,-92.0613,32.37,11111222 
WAVCIS,ioos:station:WAVCIS:CSI03:1,2010-08-08T18:00:00Z,29.4412,-92.0613,32.6,11111222 
WAVCIS,ioos:station:WAVCIS:CSI03:1,2010-08-08T19:00:00Z,29.4412,-92.0613,32.56,11111222 
WAVCIS,ioos:station:WAVCIS:CSI03:1,2010-08-08T20:00:00Z,29.4412,-92.0613,32.99,11111222 
WAVCIS,ioos:station:WAVCIS:CSI03:1,2010-08-08T21:00:00Z,29.4412,-92.0613,32.81,11111222 
WAVCIS,ioos:station:WAVCIS:CSI03:1,2010-08-08T22:00:00Z,29.4412,-92.0613,33.17,11111222 
WAVCIS,ioos:station:WAVCIS:CSI03:1,2010-08-08T23:00:00Z,29.4412,-92.0613,33.43,11111222 
WAVCIS,ioos:station:WAVCIS:CSI03:1,2010-08-09T00:00:00Z,29.4412,-92.0613,32.61,11111222 
WAVCIS,ioos:station:WAVCIS:CSI03:1,2010-08-09T01:00:00Z,29.4412,-92.0613,32.25,11111222 
WAVCIS,ioos:station:WAVCIS:CSI03:1,2010-08-09T02:00:00Z,29.4412,-92.0613,31.62,11111222 
WAVCIS,ioos:station:WAVCIS:CSI03:1,2010-08-09T03:00:00Z,29.4412,-92.0613,31.66,11111222 
WAVCIS,ioos:station:WAVCIS:CSI03:1,2010-08-09T04:00:00Z,29.4412,-92.0613,31.66,11111222 
WAVCIS,ioos:station:WAVCIS:CSI03:1,2010-08-09T05:00:00Z,29.4412,-92.0613,31.87,11111222 
WAVCIS,ioos:station:WAVCIS:CSI03:1,2010-08-09T06:00:00Z,29.4412,-92.0613,31.88,11111222 
WAVCIS,ioos:station:WAVCIS:CSI03:1,2010-08-09T07:00:00Z,29.4412,-92.0613,31.89,11111222 
WAVCIS,ioos:station:WAVCIS:CSI03:1,2010-08-09T08:00:00Z,29.4412,-92.0613,31.25,11111222 
WAVCIS,ioos:station:WAVCIS:CSI03:1,2010-08-09T09:00:00Z,29.4412,-92.0613,31.15,11111222 
WAVCIS,ioos:station:WAVCIS:CSI03:1,2010-08-09T10:00:00Z,29.4412,-92.0613,29.87,11111222 
WAVCIS,ioos:station:WAVCIS:CSI03:1,2010-08-09T11:00:00Z,29.4412,-92.0613,30.26,11111222 
WAVCIS,ioos:station:WAVCIS:CSI03:1,2010-08-09T12:00:00Z,29.4412,-92.0613,30.34,11111222 
WAVCIS,ioos:station:WAVCIS:CSI03:1,2010-08-09T13:00:00Z,29.4412,-92.0613,30.25,11111222 
WAVCIS,ioos:station:WAVCIS:CSI03:1,2010-08-09T14:00:00Z,29.4412,-92.0613,30.01,11111222 
WAVCIS,ioos:station:WAVCIS:CSI03:1,2010-08-09T15:00:00Z,29.4412,-92.0613,30.56,11111222 
WAVCIS,ioos:station:WAVCIS:CSI03:1,2010-08-09T16:00:00Z,29.4412,-92.0613,30.91,11111222 
WAVCIS,ioos:station:WAVCIS:CSI03:1,2010-08-09T17:00:00Z,29.4412,-92.0613,30.67,11111222 
WAVCIS,ioos:station:WAVCIS:CSI03:1,2010-08-09T18:00:00Z,29.4412,-92.0613,31.87,11111222 
WAVCIS,ioos:station:WAVCIS:CSI03:1,2010-08-09T19:00:00Z,29.4412,-92.0613,33.15,11111222 
WAVCIS,ioos:station:WAVCIS:CSI03:1,2010-08-09T20:00:00Z,29.4412,-92.0613,30.67,11111222 
WAVCIS,ioos:station:WAVCIS:CSI03:1,2010-08-09T21:00:00Z,29.4412,-92.0613,31.72,11111222 
WAVCIS,ioos:station:WAVCIS:CSI03:1,2010-08-09T22:00:00Z,29.4412,-92.0613,32.59,11111222 
WAVCIS,ioos:station:WAVCIS:CSI03:1,2010-08-09T23:00:00Z,29.4412,-92.0613,32.15,11111222 
WAVCIS,ioos:station:WAVCIS:CSI03:1,2010-08-10T00:00:00Z,29.4412,-92.0613,28.02,11111222 
WAVCIS,ioos:station:WAVCIS:CSI03:1,2010-08-10T01:00:00Z,29.4412,-92.0613,29.02,11111222 
WAVCIS,ioos:station:WAVCIS:CSI03:1,2010-08-10T02:00:00Z,29.4412,-92.0613,29.29,11111222 
WAVCIS,ioos:station:WAVCIS:CSI03:1,2010-08-10T03:00:00Z,29.4412,-92.0613,29.54,11111222 
WAVCIS,ioos:station:WAVCIS:CSI03:1,2010-08-10T04:00:00Z,29.4412,-92.0613,29.44,11111222 
WAVCIS,ioos:station:WAVCIS:CSI03:1,2010-08-10T05:00:00Z,29.4412,-92.0613,29.49,11111222 
WAVCIS,ioos:station:WAVCIS:CSI03:1,2010-08-10T06:00:00Z,29.4412,-92.0613,28.83,11111222 
WAVCIS,ioos:station:WAVCIS:CSI03:1,2010-08-10T07:00:00Z,29.4412,-92.0613,28.79,11111222 
WAVCIS,ioos:station:WAVCIS:CSI03:1,2010-08-10T08:00:00Z,29.4412,-92.0613,28.63,11111222 
WAVCIS,ioos:station:WAVCIS:CSI03:1,2010-08-10T09:00:00Z,29.4412,-92.0613,28.62,11111222 
WAVCIS,ioos:station:WAVCIS:CSI03:1,2010-08-10T10:00:00Z,29.4412,-92.0613,28.46,11111222 
WAVCIS,ioos:station:WAVCIS:CSI03:1,2010-08-10T11:00:00Z,29.4412,-92.0613,27.86,11111222 
WAVCIS,ioos:station:WAVCIS:CSI03:1,2010-08-10T12:00:00Z,29.4412,-92.0613,27.93,11111222 
WAVCIS,ioos:station:WAVCIS:CSI03:1,2010-08-10T13:00:00Z,29.4412,-92.0613,28.22,11111222 
WAVCIS,ioos:station:WAVCIS:CSI03:1,2010-08-10T14:00:00Z,29.4412,-92.0613,28.09,11111222 
WAVCIS,ioos:station:WAVCIS:CSI03:1,2010-08-10T15:00:00Z,29.4412,-92.0613,28.54,11111222 
WAVCIS,ioos:station:WAVCIS:CSI03:1,2010-08-10T16:00:00Z,29.4412,-92.0613,28.85,11111222 
WAVCIS,ioos:station:WAVCIS:CSI03:1,2010-08-10T17:00:00Z,29.4412,-92.0613,28.95,11111222 
WAVCIS,ioos:station:WAVCIS:CSI03:1,2010-08-10T18:00:00Z,29.4412,-92.0613,29.38,11111222 
WAVCIS,ioos:station:WAVCIS:CSI03:1,2010-08-10T19:00:00Z,29.4412,-92.0613,29.96,11111222 
WAVCIS,ioos:station:WAVCIS:CSI03:1,2010-08-10T20:00:00Z,29.4412,-92.0613,30.53,11111222 
WAVCIS,ioos:station:WAVCIS:CSI03:1,2010-08-10T21:00:00Z,29.4412,-92.0613,30.62,11111222 
WAVCIS,ioos:station:WAVCIS:CSI03:1,2010-08-10T22:00:00Z,29.4412,-92.0613,32.0,11111222 
WAVCIS,ioos:station:WAVCIS:CSI03:1,2010-08-10T23:00:00Z,29.4412,-92.0613,31.76,11111222 
WAVCIS,ioos:station:WAVCIS:CSI03:1,2010-08-11T00:00:00Z,29.4412,-92.0613,31.83,11111222 
WAVCIS,ioos:station:WAVCIS:CSI03:1,2010-08-11T01:00:00Z,29.4412,-92.0613,31.41,11111222 
WAVCIS,ioos:station:WAVCIS:CSI03:1,2010-08-11T02:00:00Z,29.4412,-92.0613,30.77,11111222 
WAVCIS,ioos:station:WAVCIS:CSI03:1,2010-08-11T03:00:00Z,29.4412,-92.0613,30.68,11111222 
WAVCIS,ioos:station:WAVCIS:CSI03:1,2010-08-11T04:00:00Z,29.4412,-92.0613,31.02,11111222 
WAVCIS,ioos:station:WAVCIS:CSI03:1,2010-08-11T05:00:00Z,29.4412,-92.0613,30.84,11111222 
WAVCIS,ioos:station:WAVCIS:CSI03:1,2010-08-11T06:00:00Z,29.4412,-92.0613,30.87,11111222 
WAVCIS,ioos:station:WAVCIS:CSI03:1,2010-08-11T07:00:00Z,29.4412,-92.0613,31.25,11111222 
WAVCIS,ioos:station:WAVCIS:CSI03:1,2010-08-11T08:00:00Z,29.4412,-92.0613,31.19,11111222 
WAVCIS,ioos:station:WAVCIS:CSI03:1,2010-08-11T09:00:00Z,29.4412,-92.0613,31.14,11111222 
WAVCIS,ioos:station:WAVCIS:CSI03:1,2010-08-11T10:00:00Z,29.4412,-92.0613,29.9,11111222 
WAVCIS,ioos:station:WAVCIS:CSI03:1,2010-08-11T11:00:00Z,29.4412,-92.0613,29.71,11111222 
WAVCIS,ioos:station:WAVCIS:CSI03:1,2010-08-11T12:00:00Z,29.4412,-92.0613,29.62,11111222 
WAVCIS,ioos:station:WAVCIS:CSI03:1,2010-08-11T13:00:00Z,29.4412,-92.0613,29.58,11111222 
WAVCIS,ioos:station:WAVCIS:CSI03:1,2010-08-11T14:00:00Z,29.4412,-92.0613,29.33,11111222 
WAVCIS,ioos:station:WAVCIS:CSI03:1,2010-08-11T15:00:00Z,29.4412,-92.0613,29.52,11111222 
WAVCIS,ioos:station:WAVCIS:CSI03:1,2010-08-11T16:00:00Z,29.4412,-92.0613,29.96,11111222 
WAVCIS,ioos:station:WAVCIS:CSI03:1,2010-08-11T17:00:00Z,29.4412,-92.0613,30.38,11111222 
WAVCIS,ioos:station:WAVCIS:CSI03:1,2010-08-11T18:00:00Z,29.4412,-92.0613,30.82,11111222 
WAVCIS,ioos:station:WAVCIS:CSI03:1,2010-08-11T19:00:00Z,29.4412,-92.0613,31.08,11111222 
WAVCIS,ioos:station:WAVCIS:CSI03:1,2010-08-11T20:00:00Z,29.4412,-92.0613,31.08,11111222 
WAVCIS,ioos:station:WAVCIS:CSI03:1,2010-08-11T21:00:00Z,29.4412,-92.0613,31.63,11111222 
WAVCIS,ioos:station:WAVCIS:CSI03:1,2010-08-11T22:00:00Z,29.4412,-92.0613,32.0,11111222 
WAVCIS,ioos:station:WAVCIS:CSI03:1,2010-08-11T23:00:00Z,29.4412,-92.0613,31.02,11111222 
WAVCIS,ioos:station:WAVCIS:CSI03:1,2010-08-12T00:00:00Z,29.4412,-92.0613,27.51,11111222 
WAVCIS,ioos:station:WAVCIS:CSI03:1,2010-08-12T01:00:00Z,29.4412,-92.0613,28.51,11111222 
WAVCIS,ioos:station:WAVCIS:CSI03:1,2010-08-12T02:00:00Z,29.4412,-92.0613,29.77,11111222 
WAVCIS,ioos:station:WAVCIS:CSI03:1,2010-08-12T03:00:00Z,29.4412,-92.0613,30.01,11111222 
WAVCIS,ioos:station:WAVCIS:CSI03:1,2010-08-12T04:00:00Z,29.4412,-92.0613,30.19,11111222 